User: anonymous   Login
Location: Knowlton
(51.2333°N, 1.2667°E)
Time: 15:47:38
(UTC+00:00)
Language:

CUBESAT XI-V - Orbit

View from above orbital plane
View from above orbital plane
View from above satellite
View from above satellite

Ground track
Ground track

The orbit data is extracted from the following two-line orbital elements,

1 28895U 05043F   21331.77944751  .00000284  00000-0  63065-4 0  9996
2 28895  98.0811 101.6778 0017724  58.9072 301.3867 14.64013106857906
Epoch (UTC): 27 November 2021 18:42:24
Eccentricity: 0.0017724
inclination: 98.0811°
perigee height: 668 km
apogee height: 693 km
right ascension of ascending node: 101.6778°
argument of perigee: 58.9072°
revolutions per day: 14.64013106
mean anomaly at epoch: 301.3867°
orbit number at epoch: 85790

The dashed part of the orbit path shows where the satellite is in the earth's shadow,  

DLR